DW7281 Weather Reports


time (UTC)temp
C
wind
direction
speed
KPH
gust
KPH
rain 1hr
cm
rain 24hr
cm
rain mn
cm
humidity
%
barometer
mb
20260503050051 21 0 0.0 19.3 0.00 0.20 0.00 63 1022.8
20260503044545 21 0 1.6 17.7 0.00 0.20 0.00 64 1022.8
20260503043045 21 348 1.6 20.9 0.00 0.20 0.00 63 1022.8
20260503041549 21 17 6.4 20.9 0.00 0.20 0.00 64 1022.9
20260503040058 21 33 6.4 20.9 0.00 0.20 0.00 63 1022.9
20260503034548 21 9 6.4 20.9 0.00 0.20 0.00 64 1023.0
20260503033047 21 9 9.7 24.1 0.00 0.20 0.00 65 1022.9
20260503031557 21 49 6.4 22.5 0.00 0.20 0.00 62 1023.3
20260503030050 20 38 6.4 25.7 0.00 0.20 0.00 64 1023.7
20260503024545 20 352 6.4 25.7 0.00 0.20 0.00 66 1023.8
20260503023055 20 51 6.4 22.5 0.00 0.20 0.00 68 1023.9
20260503021550 20 0 9.7 27.4 0.00 0.20 0.00 69 1023.9
20260503020045 19 9 8.0 35.4 0.00 0.20 0.00 71 1024.3
20260503014605 19 24 9.7 25.7 0.00 0.20 0.00 72 1024.5
20260503013047 19 17 3.2 24.1 0.00 0.20 0.00 75 1024.7
20260503011550 18 19 4.8 30.6 0.00 0.20 0.00 77 1024.7
20260503010043 18 352 8.0 29.0 0.00 0.20 0.00 78 1025.2
20260503004604 18 34 8.0 27.4 0.00 0.20 0.00 80 1025.6
20260503003048 17 51 6.4 27.4 0.00 0.20 0.00 80 1025.7
20260503001557 17 26 9.7 30.6 0.00 0.20 0.00 80 1025.8
20260503000047 17 56 8.0 27.4 0.00 0.20 0.00 80 1025.8
20260502234547 17 28 8.0 24.1 0.00 0.18 0.00 79 1025.8
20260502233049 16 32 9.7 24.1 0.00 0.18 0.00 81 1025.8
20260502231549 17 73 4.8 25.7 0.00 0.18 0.00 81 1025.8
20260502230050 16 0 8.0 20.9 0.00 0.18 0.00 81 1025.9
20260502224548 16 0 8.0 20.9 0.00 0.18 0.00 81 1025.9
20260502223047 16 38 8.0 20.9 0.00 0.18 0.00 81 1025.7
20260502221544 15 57 4.8 19.3 0.00 0.18 0.00 82 1025.5
20260502220053 15 27 9.7 16.1 0.00 0.18 0.00 81 1025.5
20260502214550 14 30 6.4 20.9 0.00 0.18 0.00 82 1025.3
20260502213047 14 14 4.8 19.3 0.00 0.18 0.00 83 1024.9
20260502211544 13 30 4.8 16.1 0.00 0.18 0.00 84 1024.8
20260502204552 13 36 4.8 12.9 0.00 0.23 0.00 87 1024.6
20260502203051 12 15 3.2 12.9 0.00 0.23 0.00 87 1024.6
20260502201552 12 32 4.8 16.1 0.00 0.23 0.00 87 1024.4
20260502200050 13 36 3.2 14.5 0.00 0.23 0.00 87 1024.3
20260502194543 13 351 4.8 11.3 0.00 0.23 0.00 88 1024.3
20260502193049 13 0 1.6 14.5 0.00 0.23 0.00 88 1024.2
20260502191557 13 28 3.2 16.1 0.00 0.23 0.00 89 1024.3
20260502190107 13 35 3.2 16.1 0.00 0.23 0.00 89 1024.2
20260502184600 13 0 0.0 12.9 0.00 0.23 0.00 88 1024.1
20260502183104 13 38 1.6 11.3 0.00 0.23 0.00 88 1024.3
20260502181547 13 30 3.2 17.7 0.00 0.23 0.00 87 1024.2
20260502163055 13 0 3.2 19.3 0.00 0.28 0.00 89 1024.4
20260502161549 13 0 4.8 20.9 0.00 0.28 0.00 89 1024.5
20260502151545 14 31 8.0 16.1 0.00 0.28 0.00 90 1024.8
20260502123051 15 0 4.8 20.9 0.00 0.30 0.28 92 1025.8
20260502121552 15 43 3.2 20.9 0.00 0.30 0.28 92 1025.8
20260502114553 15 0 3.2 22.5 0.00 0.30 0.28 92 1026.0
20260502113050 15 42 6.4 20.9 0.05 0.30 0.28 91 1025.9
20260502111559 15 57 3.2 14.5 0.08 0.30 0.28 91 1025.9
20260502110053 15 0 3.2 16.1 0.13 0.28 0.28 91 1025.8
20260502104556 15 0 0.0 11.3 0.13 0.28 0.28 91 1025.8
20260502103048 15 0 1.6 16.1 0.10 0.25 0.23 91 1025.7
20260502101551 15 0 4.8 19.3 0.08 0.20 0.18 91 1025.6
20260502070059 17 40 3.2 17.7 0.00 0.10 0.08 82 1024.7
20260502064548 17 52 4.8 19.3 0.00 0.10 0.08 82 1024.2
20260502063046 18 33 8.0 22.5 0.00 0.10 0.08 80 1024.0
20260502061549 18 55 6.4 20.9 0.00 0.10 0.08 80 1024.0
20260502060048 18 22 12.9 24.1 0.00 0.10 0.08 80 1023.9
20260502054552 19 79 9.7 22.5 0.00 0.10 0.08 76 1023.6
20260502053102 20 59 8.0 19.3 0.00 0.10 0.08 72 1023.4
20260502051603 21 5 6.4 19.3 0.00 0.10 0.08 69 1023.5